Time,TemperatureF,DewpointF,PressureIn,WindDirection,WindDirectionDegrees,WindSpeedMPH,WindSpeedGustMPH,Humidity,HourlyPrecipIn,Conditions,Clouds,dailyrainin,SoftwareType,DateUTC
2013-03-02 00:00:00,28.8,24.6,29.90,West,280,0.0,3.0,84,0.00,,---,0.00,VWS V14.01,2013-03-02 05:00:00,
2013-03-02 00:05:00,28.9,24.7,29.90,West,280,0.0,3.0,84,0.00,,---,0.00,VWS V14.01,2013-03-02 05:05:00,
2013-03-02 00:10:00,28.9,25.0,29.89,NNW,331,0.0,5.0,85,0.00,,---,0.00,VWS V14.01,2013-03-02 05:10:00,
2013-03-02 00:15:00,28.9,25.0,29.89,NW,321,3.0,5.0,85,0.00,,---,0.00,VWS V14.01,2013-03-02 05:15:00,
2013-03-02 00:20:00,28.9,25.0,29.90,North,350,0.0,6.0,85,0.00,,---,0.00,VWS V14.01,2013-03-02 05:20:00,
2013-03-02 00:25:00,28.9,25.0,29.89,WNW,301,0.0,1.0,85,0.00,,---,0.00,VWS V14.01,2013-03-02 05:25:00,
2013-03-02 00:30:00,28.9,25.0,29.89,WNW,300,3.0,4.0,85,0.00,,---,0.00,VWS V14.01,2013-03-02 05:30:00,
2013-03-02 00:35:00,28.9,25.0,29.89,WNW,290,1.0,6.0,85,0.00,,---,0.00,VWS V14.01,2013-03-02 05:35:00,
2013-03-02 00:40:00,28.8,25.1,29.89,WNW,302,2.0,6.0,86,0.00,,---,0.00,VWS V14.01,2013-03-02 05:40:00,
2013-03-02 00:45:00,28.8,25.1,29.90,WNW,302,0.0,6.0,86,0.00,,---,0.00,VWS V14.01,2013-03-02 05:45:00,
2013-03-02 00:50:00,28.8,25.1,29.90,West,279,0.0,7.0,86,0.00,,---,0.00,VWS V14.01,2013-03-02 05:50:00,
2013-03-02 00:55:00,28.8,25.4,29.90,West,279,0.0,2.0,87,0.00,,---,0.00,VWS V14.01,2013-03-02 05:55:00,
2013-03-02 01:00:00,28.7,25.3,29.90,NW,321,0.0,6.0,87,0.00,,---,0.00,VWS V14.01,2013-03-02 06:00:00,
2013-03-02 01:05:00,28.7,25.3,29.90,NW,321,1.0,6.0,87,0.00,,---,0.00,VWS V14.01,2013-03-02 06:05:00,
2013-03-02 01:10:00,28.6,25.5,29.89,WNW,293,3.0,6.0,88,0.00,,---,0.00,VWS V14.01,2013-03-02 06:10:00,
2013-03-02 01:15:00,28.5,25.4,29.89,WNW,282,1.0,6.0,88,0.00,,---,0.00,VWS V14.01,2013-03-02 06:15:00,
2013-03-02 01:20:00,28.4,25.6,29.89,NW,319,2.0,6.0,89,0.00,,---,0.00,VWS V14.01,2013-03-02 06:20:00,
2013-03-02 01:25:00,28.4,25.6,29.89,WNW,296,1.0,3.0,89,0.00,,---,0.00,VWS V14.01,2013-03-02 06:25:00,
2013-03-02 01:31:00,28.4,25.3,29.90,NW,310,0.0,7.0,88,0.00,,---,0.00,VWS V14.01,2013-03-02 06:31:00,
2013-03-02 01:36:00,28.4,25.3,29.89,NW,311,2.0,7.0,88,0.00,,---,0.00,VWS V14.01,2013-03-02 06:36:00,
2013-03-02 01:41:00,28.4,25.3,29.89,West,279,1.0,7.0,88,0.00,,---,0.00,VWS V14.01,2013-03-02 06:41:00,
2013-03-02 01:46:00,28.4,25.3,29.89,NNW,342,4.0,7.0,88,0.00,,---,0.00,VWS V14.01,2013-03-02 06:46:00,
2013-03-02 01:51:00,28.3,25.2,29.90,WNW,296,1.0,7.0,88,0.00,,---,0.00,VWS V14.01,2013-03-02 06:51:00,
2013-03-02 01:56:00,28.3,25.5,29.90,West,263,0.0,4.0,89,0.00,,---,0.00,VWS V14.01,2013-03-02 06:56:00,
2013-03-02 02:01:00,28.3,25.5,29.90,NW,318,1.0,6.0,89,0.00,,---,0.00,VWS V14.01,2013-03-02 07:01:00,
2013-03-02 02:06:00,28.3,25.5,29.89,WSW,250,0.0,6.0,89,0.00,,---,0.00,VWS V14.01,2013-03-02 07:06:00,
2013-03-02 02:11:00,28.2,25.4,29.89,NW,317,1.0,6.0,89,0.00,,---,0.00,VWS V14.01,2013-03-02 07:11:00,
2013-03-02 02:16:00,28.1,25.3,29.89,NNW,327,1.0,6.0,89,0.00,,---,0.00,VWS V14.01,2013-03-02 07:16:00,
2013-03-02 02:21:00,28.1,25.3,29.89,North,355,3.0,7.0,89,0.00,,---,0.00,VWS V14.01,2013-03-02 07:21:00,
2013-03-02 02:26:00,28.2,25.1,29.89,North,360,1.0,5.0,88,0.00,,---,0.00,VWS V14.01,2013-03-02 07:26:00,
2013-03-02 02:31:00,28.3,25.2,29.89,NNW,340,4.0,7.0,88,0.00,,---,0.00,VWS V14.01,2013-03-02 07:31:00,
2013-03-02 02:36:00,28.4,25.3,29.89,NNW,337,0.0,7.0,88,0.00,,---,0.00,VWS V14.01,2013-03-02 07:36:00,
2013-03-02 02:41:00,28.3,25.2,29.89,WNW,301,0.0,7.0,88,0.00,,---,0.00,VWS V14.01,2013-03-02 07:41:00,
2013-03-02 02:46:00,28.2,25.1,29.89,WNW,284,2.0,8.0,88,0.00,,---,0.00,VWS V14.01,2013-03-02 07:46:00,
2013-03-02 02:51:00,28.1,25.0,29.89,WNW,296,2.0,8.0,88,0.00,,---,0.00,VWS V14.01,2013-03-02 07:51:00,
2013-03-02 02:56:00,28.0,24.9,29.89,NW,325,1.0,4.0,88,0.00,,---,0.00,VWS V14.01,2013-03-02 07:56:00,
2013-03-02 03:01:00,28.0,24.9,29.89,NW,305,1.0,6.0,88,0.00,,---,0.00,VWS V14.01,2013-03-02 08:01:00,
2013-03-02 03:06:00,28.1,25.3,29.89,NW,305,3.0,6.0,89,0.00,,---,0.00,VWS V14.01,2013-03-02 08:06:00,
2013-03-02 03:11:00,28.0,25.2,29.89,NW,305,0.0,6.0,89,0.00,,---,0.00,VWS V14.01,2013-03-02 08:11:00,
2013-03-02 03:16:00,27.9,25.1,29.89,NW,305,3.0,6.0,89,0.00,,---,0.00,VWS V14.01,2013-03-02 08:16:00,
2013-03-02 03:21:00,27.8,24.7,29.89,NNW,329,3.0,6.0,88,0.00,,---,0.00,VWS V14.01,2013-03-02 08:21:00,
2013-03-02 03:26:00,27.7,24.6,29.89,WNW,283,0.0,2.0,88,0.00,,---,0.00,VWS V14.01,2013-03-02 08:26:00,
2013-03-02 03:31:00,27.7,24.6,29.89,West,278,3.0,6.0,88,0.00,,---,0.00,VWS V14.01,2013-03-02 08:31:00,
2013-03-02 03:36:00,27.6,24.5,29.89,North,5,0.0,6.0,88,0.00,,---,0.00,VWS V14.01,2013-03-02 08:36:00,
2013-03-02 03:41:00,27.6,24.5,29.89,NNW,328,2.0,6.0,88,0.00,,---,0.00,VWS V14.01,2013-03-02 08:41:00,
2013-03-02 03:46:00,27.5,24.4,29.89,NW,324,0.0,6.0,88,0.00,,---,0.00,VWS V14.01,2013-03-02 08:46:00,
2013-03-02 03:51:00,27.5,24.4,29.89,NNW,342,1.0,6.0,88,0.00,,---,0.00,VWS V14.01,2013-03-02 08:51:00,
2013-03-02 03:56:00,27.5,24.4,29.89,NW,326,0.0,2.0,88,0.00,,---,0.00,VWS V14.01,2013-03-02 08:56:00,
2013-03-02 04:01:00,27.4,24.3,29.89,WNW,290,1.0,4.0,88,0.00,,---,0.00,VWS V14.01,2013-03-02 09:01:00,
2013-03-02 04:06:00,27.4,24.3,29.89,NNW,344,1.0,7.0,88,0.00,,---,0.00,VWS V14.01,2013-03-02 09:06:00,
2013-03-02 04:11:00,27.2,24.1,29.89,NW,304,3.0,8.0,88,0.00,,---,0.00,VWS V14.01,2013-03-02 09:11:00,
2013-03-02 04:16:00,27.2,23.9,29.89,NW,307,4.0,8.0,87,0.00,,---,0.00,VWS V14.01,2013-03-02 09:16:00,
2013-03-02 04:21:00,27.1,23.8,29.89,NW,321,3.0,10.0,87,0.00,,---,0.00,VWS V14.01,2013-03-02 09:21:00,
2013-03-02 04:26:00,27.0,23.6,29.89,NE,43,1.0,3.0,87,0.00,,---,0.00,VWS V14.01,2013-03-02 09:26:00,
2013-03-02 04:31:00,27.0,23.6,29.89,WNW,288,3.0,6.0,87,0.00,,---,0.00,VWS V14.01,2013-03-02 09:31:00,
2013-03-02 04:36:00,26.9,23.6,29.89,NNW,337,7.0,7.0,87,0.00,,---,0.00,VWS V14.01,2013-03-02 09:36:00,
2013-03-02 04:41:00,26.9,23.6,29.90,NNW,331,3.0,7.0,87,0.00,,---,0.00,VWS V14.01,2013-03-02 09:41:00,
2013-03-02 04:46:00,26.8,23.5,29.90,NW,316,0.0,7.0,87,0.00,,---,0.00,VWS V14.01,2013-03-02 09:46:00,
2013-03-02 04:51:00,26.8,23.5,29.90,WNW,298,0.0,7.0,87,0.00,,---,0.00,VWS V14.01,2013-03-02 09:51:00,
2013-03-02 04:56:00,26.7,23.4,29.90,NNW,327,3.0,5.0,87,0.00,,---,0.00,VWS V14.01,2013-03-02 09:56:00,
2013-03-02 05:01:00,26.7,23.4,29.90,NW,309,1.0,6.0,87,0.00,,---,0.00,VWS V14.01,2013-03-02 10:01:00,
2013-03-02 05:06:00,26.6,23.3,29.90,West,280,1.0,7.0,87,0.00,,---,0.00,VWS V14.01,2013-03-02 10:06:00,
2013-03-02 05:11:00,26.5,23.2,29.90,WNW,284,1.0,7.0,87,0.00,,---,0.00,VWS V14.01,2013-03-02 10:11:00,
2013-03-02 05:16:00,26.5,22.9,29.91,NW,311,2.0,7.0,86,0.00,,---,0.00,VWS V14.01,2013-03-02 10:16:00,
2013-03-02 05:21:00,26.4,22.8,29.91,NNW,336,0.0,7.0,86,0.00,,---,0.00,VWS V14.01,2013-03-02 10:21:00,
2013-03-02 05:26:00,26.4,22.5,29.90,NW,319,0.0,5.0,85,0.00,,---,0.00,VWS V14.01,2013-03-02 10:26:00,
2013-03-02 05:31:00,26.3,22.4,29.90,NW,319,0.0,5.0,85,0.00,,---,0.00,VWS V14.01,2013-03-02 10:31:00,
2013-03-02 05:36:00,26.3,22.4,29.90,NW,313,3.0,7.0,85,0.00,,---,0.00,VWS V14.01,2013-03-02 10:36:00,
2013-03-02 05:41:00,26.2,22.3,29.90,WSW,257,0.0,7.0,85,0.00,,---,0.00,VWS V14.01,2013-03-02 10:41:00,
2013-03-02 05:46:00,26.2,22.3,29.90,NW,319,3.0,7.0,85,0.00,,---,0.00,VWS V14.01,2013-03-02 10:46:00,
2013-03-02 05:51:00,26.1,22.2,29.90,WNW,301,5.0,8.0,85,0.00,,---,0.00,VWS V14.01,2013-03-02 10:51:00,
2013-03-02 05:56:00,26.0,22.1,29.90,WNW,291,1.0,4.0,85,0.00,,---,0.00,VWS V14.01,2013-03-02 10:56:00,
2013-03-02 06:01:00,26.0,22.1,29.90,WNW,292,2.0,9.0,85,0.00,,---,0.00,VWS V14.01,2013-03-02 11:01:00,
2013-03-02 06:06:00,25.9,22.0,29.91,WNW,292,1.0,9.0,85,0.00,,---,0.00,VWS V14.01,2013-03-02 11:06:00,
2013-03-02 06:11:00,25.9,22.0,29.91,North,360,5.0,9.0,85,0.00,,---,0.00,VWS V14.01,2013-03-02 11:11:00,
2013-03-02 06:16:00,25.8,21.6,29.91,NNE,24,1.0,11.0,84,0.00,,---,0.00,VWS V14.01,2013-03-02 11:16:00,
2013-03-02 06:21:00,25.8,21.6,29.91,NNW,348,3.0,11.0,84,0.00,,---,0.00,VWS V14.01,2013-03-02 11:21:00,
2013-03-02 06:26:00,25.7,21.5,29.91,NNW,335,3.0,6.0,84,0.00,,---,0.00,VWS V14.01,2013-03-02 11:26:00,
2013-03-02 06:31:00,25.6,21.2,29.91,WNW,297,0.0,8.0,83,0.00,,---,0.00,VWS V14.01,2013-03-02 11:31:00,
2013-03-02 06:36:00,25.6,21.2,29.91,WNW,296,4.0,8.0,83,0.00,,---,0.00,VWS V14.01,2013-03-02 11:36:00,
2013-03-02 06:41:00,25.5,21.1,29.91,NW,321,0.0,9.0,83,0.00,,---,0.00,VWS V14.01,2013-03-02 11:41:00,
2013-03-02 06:46:00,25.5,21.1,29.91,NW,316,2.0,9.0,83,0.00,,---,0.00,VWS V14.01,2013-03-02 11:46:00,
2013-03-02 06:51:00,25.4,21.0,29.91,NNW,337,2.0,9.0,83,0.00,,---,0.00,VWS V14.01,2013-03-02 11:51:00,
2013-03-02 06:56:00,25.4,21.0,29.91,NNW,329,2.0,6.0,83,0.00,,---,0.00,VWS V14.01,2013-03-02 11:56:00,
2013-03-02 07:01:00,25.3,21.1,29.92,NNW,333,2.0,8.0,84,0.00,,---,0.00,VWS V14.01,2013-03-02 12:01:00,
2013-03-02 07:06:00,25.3,21.1,29.92,NW,325,6.0,8.0,84,0.00,,---,0.00,VWS V14.01,2013-03-02 12:06:00,
2013-03-02 07:11:00,25.2,21.3,29.92,North,360,4.0,8.0,85,0.00,,---,0.00,VWS V14.01,2013-03-02 12:11:00,
2013-03-02 07:16:00,25.2,21.3,29.92,NNW,332,1.0,8.0,85,0.00,,---,0.00,VWS V14.01,2013-03-02 12:16:00,
2013-03-02 07:21:00,25.2,23.2,29.92,WNW,296,2.0,8.0,92,0.00,,---,0.00,VWS V14.01,2013-03-02 12:21:00,
2013-03-02 07:26:00,25.2,21.6,29.92,WNW,296,2.0,3.0,86,0.00,,---,0.00,VWS V14.01,2013-03-02 12:26:00,
2013-03-02 07:31:00,25.2,21.6,29.92,NW,309,5.0,6.0,86,0.00,,---,0.00,VWS V14.01,2013-03-02 12:31:00,
2013-03-02 07:36:00,25.2,21.6,29.92,NW,311,3.0,10.0,86,0.00,,---,0.00,VWS V14.01,2013-03-02 12:36:00,
2013-03-02 07:41:00,25.1,21.5,29.92,NNW,327,2.0,10.0,86,0.00,,---,0.00,VWS V14.01,2013-03-02 12:41:00,
2013-03-02 07:46:00,25.1,21.8,29.92,NW,324,2.0,10.0,87,0.00,,---,0.00,VWS V14.01,2013-03-02 12:46:00,
2013-03-02 07:51:00,25.1,21.8,29.92,NW,314,1.0,10.0,87,0.00,,---,0.00,VWS V14.01,2013-03-02 12:51:00,
2013-03-02 07:56:00,25.1,21.8,29.92,NW,324,0.0,4.0,87,0.00,,---,0.00,VWS V14.01,2013-03-02 12:56:00,
2013-03-02 08:01:00,25.2,21.9,29.92,NNW,330,0.0,5.0,87,0.00,,---,0.00,VWS V14.01,2013-03-02 13:01:00,
2013-03-02 08:06:00,25.2,21.9,29.92,NW,320,3.0,9.0,87,0.00,,---,0.00,VWS V14.01,2013-03-02 13:06:00,
2013-03-02 08:11:00,25.2,21.6,29.92,NW,307,1.0,9.0,86,0.00,,---,0.00,VWS V14.01,2013-03-02 13:11:00,
2013-03-02 08:16:00,25.3,21.7,29.92,WNW,296,1.0,9.0,86,0.00,,---,0.00,VWS V14.01,2013-03-02 13:16:00,
2013-03-02 08:21:00,25.3,21.7,29.92,WNW,296,0.0,9.0,86,0.00,,---,0.00,VWS V14.01,2013-03-02 13:21:00,
2013-03-02 08:26:00,25.4,21.8,29.92,NW,315,3.0,4.0,86,0.00,,---,0.00,VWS V14.01,2013-03-02 13:26:00,
2013-03-02 08:31:00,25.4,21.8,29.92,NNW,346,1.0,5.0,86,0.00,,---,0.00,VWS V14.01,2013-03-02 13:31:00,
2013-03-02 08:36:00,25.3,21.7,29.92,NW,313,2.0,5.0,86,0.00,,---,0.00,VWS V14.01,2013-03-02 13:36:00,
2013-03-02 08:41:00,25.3,21.7,29.92,WNW,292,1.0,5.0,86,0.00,,---,0.00,VWS V14.01,2013-03-02 13:41:00,
2013-03-02 08:46:00,25.3,22.0,29.92,NNW,344,2.0,5.0,87,0.00,,---,0.00,VWS V14.01,2013-03-02 13:46:00,
2013-03-02 08:51:00,25.3,22.0,29.92,NW,319,1.0,5.0,87,0.00,,---,0.00,VWS V14.01,2013-03-02 13:51:00,
2013-03-02 08:56:00,25.3,22.0,29.92,NW,319,0.0,2.0,87,0.00,,---,0.00,VWS V14.01,2013-03-02 13:56:00,
2013-03-02 09:01:00,25.3,22.0,29.92,NNW,333,0.0,4.0,87,0.00,,---,0.00,VWS V14.01,2013-03-02 14:01:00,
2013-03-02 09:06:00,25.3,22.2,29.92,NW,321,1.0,4.0,88,0.00,,---,0.00,VWS V14.01,2013-03-02 14:06:00,
2013-03-02 09:11:00,25.4,22.4,29.92,North,350,0.0,4.0,88,0.00,,---,0.00,VWS V14.01,2013-03-02 14:11:00,
2013-03-02 09:16:00,25.4,22.1,29.92,WNW,300,0.0,6.0,87,0.00,,---,0.00,VWS V14.01,2013-03-02 14:16:00,
2013-03-02 09:21:00,25.5,21.9,29.92,NNW,336,2.0,6.0,86,0.00,,---,0.00,VWS V14.01,2013-03-02 14:21:00,
2013-03-02 09:26:00,25.4,21.5,29.92,North,360,3.0,5.0,85,0.00,,---,0.00,VWS V14.01,2013-03-02 14:26:00,
2013-03-02 09:31:00,25.3,21.1,29.92,NNW,340,4.0,10.0,84,0.00,,---,0.00,VWS V14.01,2013-03-02 14:31:00,
2013-03-02 09:36:00,25.5,21.4,29.92,NNW,329,2.0,10.0,84,0.00,,---,0.00,VWS V14.01,2013-03-02 14:36:00,
2013-03-02 09:41:00,25.7,21.5,29.92,North,360,0.0,10.0,84,0.00,,---,0.00,VWS V14.01,2013-03-02 14:41:00,
2013-03-02 09:46:00,25.8,21.4,29.92,NNW,340,0.0,10.0,83,0.00,,---,0.00,VWS V14.01,2013-03-02 14:46:00,
2013-03-02 09:51:00,25.9,21.2,29.92,WNW,293,6.0,10.0,82,0.00,,---,0.00,VWS V14.01,2013-03-02 14:51:00,
2013-03-02 09:57:00,26.0,21.3,29.92,North,5,2.0,7.0,82,0.00,,---,0.00,VWS V14.01,2013-03-02 14:57:00,
2013-03-02 10:02:00,26.1,21.4,29.91,NW,321,1.0,8.0,82,0.00,,---,0.00,VWS V14.01,2013-03-02 15:02:00,
2013-03-02 10:07:00,26.3,21.6,29.91,WNW,293,0.0,8.0,82,0.00,,---,0.00,VWS V14.01,2013-03-02 15:07:00,
2013-03-02 10:12:00,26.6,21.9,29.91,NW,306,2.0,8.0,82,0.00,,---,0.00,VWS V14.01,2013-03-02 15:12:00,
2013-03-02 10:17:00,26.7,21.7,29.91,NW,310,4.0,8.0,81,0.00,,---,0.00,VWS V14.01,2013-03-02 15:17:00,
2013-03-02 10:22:00,26.7,21.4,29.91,NW,325,1.0,8.0,80,0.00,,---,0.00,VWS V14.01,2013-03-02 15:22:00,
2013-03-02 10:27:00,26.9,21.9,29.91,NNW,337,2.0,4.0,81,0.00,,---,0.00,VWS V14.01,2013-03-02 15:27:00,
2013-03-02 10:32:00,27.0,21.4,29.91,NNW,346,3.0,7.0,79,0.00,,---,0.00,VWS V14.01,2013-03-02 15:32:00,
2013-03-02 10:37:00,27.0,21.4,29.91,WSW,251,3.0,11.0,79,0.00,,---,0.00,VWS V14.01,2013-03-02 15:37:00,
2013-03-02 10:42:00,27.2,21.6,29.91,NW,310,3.0,11.0,79,0.00,,---,0.00,VWS V14.01,2013-03-02 15:42:00,
2013-03-02 10:47:00,27.3,21.4,29.91,North,355,4.0,11.0,78,0.00,,---,0.00,VWS V14.01,2013-03-02 15:47:00,
2013-03-02 10:52:00,27.2,21.3,29.91,NW,306,1.0,11.0,78,0.00,,---,0.00,VWS V14.01,2013-03-02 15:52:00,
2013-03-02 10:57:00,27.2,21.3,29.91,NNW,343,6.0,9.0,78,0.00,,---,0.00,VWS V14.01,2013-03-02 15:57:00,
2013-03-02 11:02:00,27.0,21.1,29.91,WNW,286,7.0,9.0,78,0.00,,---,0.00,VWS V14.01,2013-03-02 16:02:00,
2013-03-02 11:07:00,26.9,21.3,29.91,NW,307,0.0,9.0,79,0.00,,---,0.00,VWS V14.01,2013-03-02 16:07:00,
2013-03-02 11:12:00,27.0,21.4,29.91,WNW,288,5.0,9.0,79,0.00,,---,0.00,VWS V14.01,2013-03-02 16:12:00,
2013-03-02 11:17:00,26.8,20.9,29.91,NNW,343,5.0,9.0,78,0.00,,---,0.00,VWS V14.01,2013-03-02 16:17:00,
2013-03-02 11:22:00,26.7,21.1,29.91,NNW,333,3.0,9.0,79,0.00,,---,0.00,VWS V14.01,2013-03-02 16:22:00,
2013-03-02 11:27:00,26.9,21.3,29.91,NW,326,3.0,4.0,79,0.00,,---,0.00,VWS V14.01,2013-03-02 16:27:00,
2013-03-02 11:32:00,26.9,21.3,29.91,NW,326,6.0,10.0,79,0.00,,---,0.00,VWS V14.01,2013-03-02 16:32:00,
2013-03-02 11:37:00,26.7,21.4,29.91,NW,317,2.0,10.0,80,0.00,,---,0.00,VWS V14.01,2013-03-02 16:37:00,
2013-03-02 11:42:00,26.8,21.8,29.91,NW,315,1.0,10.0,81,0.00,,---,0.00,VWS V14.01,2013-03-02 16:42:00,
2013-03-02 11:47:00,27.0,22.2,29.90,WNW,296,1.0,10.0,82,0.00,,---,0.00,VWS V14.01,2013-03-02 16:47:00,
2013-03-02 11:52:00,27.0,21.7,29.90,North,355,1.0,10.0,80,0.00,,---,0.00,VWS V14.01,2013-03-02 16:52:00,
2013-03-02 11:57:00,27.0,21.7,29.90,NW,313,3.0,5.0,80,0.00,,---,0.00,VWS V14.01,2013-03-02 16:57:00,
2013-03-02 12:02:00,27.2,21.9,29.90,NW,318,2.0,5.0,80,0.00,,---,0.00,VWS V14.01,2013-03-02 17:02:00,
2013-03-02 12:07:00,27.3,21.7,29.90,West,267,3.0,7.0,79,0.00,,---,0.00,VWS V14.01,2013-03-02 17:07:00,
2013-03-02 12:12:00,27.3,21.7,29.90,NW,319,2.0,7.0,79,0.00,,---,0.00,VWS V14.01,2013-03-02 17:12:00,
2013-03-02 12:17:00,27.2,21.6,29.90,WSW,256,4.0,7.0,79,0.00,,---,0.00,VWS V14.01,2013-03-02 17:17:00,
2013-03-02 12:22:00,27.2,21.6,29.90,NW,326,1.0,7.0,79,0.00,,---,0.00,VWS V14.01,2013-03-02 17:22:00,
2013-03-02 12:27:00,27.3,21.7,29.90,SSW,211,4.0,7.0,79,0.00,,---,0.00,VWS V14.01,2013-03-02 17:27:00,
2013-03-02 12:32:00,27.5,22.1,29.90,West,273,5.0,7.0,80,0.00,,---,0.00,VWS V14.01,2013-03-02 17:32:00,
2013-03-02 12:37:00,27.3,21.7,29.89,West,269,3.0,8.0,79,0.00,,---,0.00,VWS V14.01,2013-03-02 17:37:00,
2013-03-02 12:42:00,27.2,21.6,29.89,WNW,300,1.0,10.0,79,0.00,,---,0.00,VWS V14.01,2013-03-02 17:42:00,
2013-03-02 12:47:00,27.3,22.0,29.89,North,350,3.0,10.0,80,0.00,,---,0.00,VWS V14.01,2013-03-02 17:47:00,
2013-03-02 12:52:00,27.2,22.1,29.89,NNW,348,2.0,10.0,81,0.00,,---,0.00,VWS V14.01,2013-03-02 17:52:00,
2013-03-02 12:57:00,27.1,22.1,29.89,WNW,288,4.0,6.0,81,0.00,,---,0.00,VWS V14.01,2013-03-02 17:57:00,
2013-03-02 13:02:00,27.2,22.4,29.89,NNW,331,0.0,6.0,82,0.00,,---,0.00,VWS V14.01,2013-03-02 18:02:00,
2013-03-02 13:07:00,27.3,22.8,29.88,NNW,348,2.0,6.0,83,0.00,,---,0.00,VWS V14.01,2013-03-02 18:07:00,
2013-03-02 13:12:00,27.3,22.8,29.88,North,350,2.0,6.0,83,0.00,,---,0.00,VWS V14.01,2013-03-02 18:12:00,
2013-03-02 13:17:00,27.3,23.1,29.88,NW,306,4.0,6.0,84,0.00,,---,0.00,VWS V14.01,2013-03-02 18:17:00,
2013-03-02 13:22:00,27.2,22.7,29.88,NW,317,3.0,6.0,83,0.00,,---,0.00,VWS V14.01,2013-03-02 18:22:00,
2013-03-02 13:27:00,27.1,23.2,29.88,NNW,340,0.0,4.0,85,0.00,,---,0.00,VWS V14.01,2013-03-02 18:27:00,
2013-03-02 13:32:00,27.2,23.6,29.88,NW,311,3.0,6.0,86,0.00,,---,0.00,VWS V14.01,2013-03-02 18:32:00,
2013-03-02 13:37:00,27.2,23.3,29.88,North,355,3.0,6.0,85,0.00,,---,0.00,VWS V14.01,2013-03-02 18:37:00,
2013-03-02 13:42:00,27.5,23.9,29.88,NNW,327,1.0,6.0,86,0.01,,---,0.01,VWS V14.01,2013-03-02 18:42:00,
2013-03-02 13:47:00,27.6,23.7,29.88,NNW,330,4.0,6.0,85,0.01,,---,0.01,VWS V14.01,2013-03-02 18:47:00,
2013-03-02 13:52:00,27.5,23.6,29.88,NNW,340,2.0,6.0,85,0.01,,---,0.01,VWS V14.01,2013-03-02 18:52:00,
2013-03-02 13:57:00,27.6,24.0,29.88,NNW,334,7.0,7.0,86,0.01,,---,0.01,VWS V14.01,2013-03-02 18:57:00,
2013-03-02 14:02:00,27.4,23.5,29.88,West,272,3.0,10.0,85,0.01,,---,0.01,VWS V14.01,2013-03-02 19:02:00,
2013-03-02 14:07:00,27.3,23.4,29.88,NNW,336,3.0,10.0,85,0.01,,---,0.01,VWS V14.01,2013-03-02 19:07:00,
2013-03-02 14:12:00,27.1,23.2,29.88,NW,309,2.0,10.0,85,0.01,,---,0.01,VWS V14.01,2013-03-02 19:12:00,
2013-03-02 14:17:00,27.2,23.3,29.88,WSW,246,0.0,10.0,85,0.01,,---,0.01,VWS V14.01,2013-03-02 19:17:00,
2013-03-02 14:22:00,27.5,23.6,29.88,West,263,6.0,10.0,85,0.01,,---,0.01,VWS V14.01,2013-03-02 19:22:00,
2013-03-02 14:27:00,27.7,24.1,29.88,NW,307,2.0,4.0,86,0.01,,---,0.01,VWS V14.01,2013-03-02 19:27:00,
2013-03-02 14:32:00,27.8,24.2,29.88,NNW,329,1.0,6.0,86,0.01,,---,0.01,VWS V14.01,2013-03-02 19:32:00,
2013-03-02 14:37:00,27.9,24.3,29.88,NW,321,4.0,7.0,86,0.01,,---,0.01,VWS V14.01,2013-03-02 19:37:00,
2013-03-02 14:42:00,27.9,24.0,29.88,WNW,302,2.0,7.0,85,0.01,,---,0.01,VWS V14.01,2013-03-02 19:42:00,
2013-03-02 14:47:00,27.8,24.2,29.88,NNW,343,0.0,7.0,86,0.02,,---,0.02,VWS V14.01,2013-03-02 19:47:00,
2013-03-02 14:52:00,27.6,23.7,29.88,North,9,2.0,7.0,85,0.02,,---,0.02,VWS V14.01,2013-03-02 19:52:00,
2013-03-02 14:57:00,27.5,23.9,29.87,NW,313,4.0,5.0,86,0.01,,---,0.02,VWS V14.01,2013-03-02 19:57:00,
2013-03-02 15:02:00,27.5,23.6,29.87,North,5,1.0,6.0,85,0.01,,---,0.02,VWS V14.01,2013-03-02 20:02:00,
2013-03-02 15:07:00,27.6,23.7,29.87,NW,325,3.0,6.0,85,0.01,,---,0.02,VWS V14.01,2013-03-02 20:07:00,
2013-03-02 15:12:00,27.6,23.1,29.87,WNW,285,5.0,6.0,83,0.01,,---,0.02,VWS V14.01,2013-03-02 20:12:00,
2013-03-02 15:17:00,27.4,22.6,29.88,NW,320,2.0,8.0,82,0.01,,---,0.02,VWS V14.01,2013-03-02 20:17:00,
2013-03-02 15:22:00,27.2,22.4,29.87,NW,322,1.0,8.0,82,0.01,,---,0.02,VWS V14.01,2013-03-02 20:22:00,
2013-03-02 15:27:00,27.3,22.8,29.87,NNW,336,5.0,6.0,83,0.01,,---,0.02,VWS V14.01,2013-03-02 20:27:00,
2013-03-02 15:32:00,27.3,22.8,29.87,WNW,283,1.0,6.0,83,0.01,,---,0.02,VWS V14.01,2013-03-02 20:32:00,
2013-03-02 15:37:00,27.2,22.4,29.87,NNW,347,1.0,10.0,82,0.01,,---,0.02,VWS V14.01,2013-03-02 20:37:00,
2013-03-02 15:42:00,27.2,22.7,29.87,NW,324,2.0,10.0,83,0.01,,---,0.02,VWS V14.01,2013-03-02 20:42:00,
2013-03-02 15:47:00,27.0,22.5,29.87,NNW,337,3.0,10.0,83,0.01,,---,0.02,VWS V14.01,2013-03-02 20:47:00,
2013-03-02 15:52:00,27.0,22.8,29.87,NNW,337,0.0,10.0,84,0.01,,---,0.02,VWS V14.01,2013-03-02 20:52:00,
2013-03-02 15:57:00,27.0,22.5,29.87,NW,317,2.0,5.0,83,0.00,,---,0.02,VWS V14.01,2013-03-02 20:57:00,
2013-03-02 16:02:00,26.9,22.7,29.87,NW,320,1.0,5.0,84,0.00,,---,0.02,VWS V14.01,2013-03-02 21:02:00,
2013-03-02 16:07:00,26.9,22.7,29.87,North,350,3.0,7.0,84,0.00,,---,0.02,VWS V14.01,2013-03-02 21:07:00,
2013-03-02 16:12:00,26.7,22.5,29.88,NW,315,3.0,10.0,84,0.00,,---,0.02,VWS V14.01,2013-03-02 21:12:00,
2013-03-02 16:17:00,26.6,22.4,29.88,NW,321,3.0,10.0,84,0.00,,---,0.02,VWS V14.01,2013-03-02 21:17:00,
2013-03-02 16:22:00,26.6,22.4,29.88,NNW,347,4.0,10.0,84,0.00,,---,0.02,VWS V14.01,2013-03-02 21:22:00,
2013-03-02 16:27:00,26.6,22.4,29.88,NNW,344,0.0,4.0,84,0.00,,---,0.02,VWS V14.01,2013-03-02 21:27:00,
2013-03-02 16:32:00,26.5,22.3,29.88,NW,326,2.0,4.0,84,0.00,,---,0.02,VWS V14.01,2013-03-02 21:32:00,
2013-03-02 16:37:00,26.5,22.6,29.88,NW,326,1.0,4.0,85,0.00,,---,0.02,VWS V14.01,2013-03-02 21:37:00,
2013-03-02 16:42:00,26.4,22.5,29.88,NNW,327,1.0,4.0,85,0.00,,---,0.02,VWS V14.01,2013-03-02 21:42:00,
2013-03-02 16:47:00,26.4,22.8,29.88,NW,326,1.0,4.0,86,0.00,,---,0.02,VWS V14.01,2013-03-02 21:47:00,
2013-03-02 16:52:00,26.3,22.4,29.88,West,269,3.0,5.0,85,0.00,,---,0.02,VWS V14.01,2013-03-02 21:52:00,
2013-03-02 16:57:00,26.1,22.2,29.88,NW,322,2.0,4.0,85,0.00,,---,0.02,VWS V14.01,2013-03-02 21:57:00,
2013-03-02 17:02:00,26.0,22.1,29.88,NNW,329,0.0,5.0,85,0.00,,---,0.02,VWS V14.01,2013-03-02 22:02:00,
2013-03-02 17:07:00,26.0,22.4,29.88,WNW,290,0.0,5.0,86,0.00,,---,0.02,VWS V14.01,2013-03-02 22:07:00,
2013-03-02 17:12:00,26.0,22.1,29.88,North,355,2.0,5.0,85,0.00,,---,0.02,VWS V14.01,2013-03-02 22:12:00,
2013-03-02 17:17:00,25.9,21.7,29.88,NW,319,3.0,5.0,84,0.00,,---,0.02,VWS V14.01,2013-03-02 22:17:00,
2013-03-02 17:22:00,25.8,21.6,29.89,NW,315,2.0,5.0,84,0.00,,---,0.02,VWS V14.01,2013-03-02 22:22:00,
2013-03-02 17:27:00,25.8,21.6,29.89,NW,316,0.0,3.0,84,0.00,,---,0.02,VWS V14.01,2013-03-02 22:27:00,
2013-03-02 17:32:00,25.8,21.9,29.89,NW,316,0.0,4.0,85,0.00,,---,0.02,VWS V14.01,2013-03-02 22:32:00,
2013-03-02 17:37:00,25.8,21.6,29.89,NW,316,0.0,4.0,84,0.00,,---,0.02,VWS V14.01,2013-03-02 22:37:00,
2013-03-02 17:42:00,25.8,21.6,29.89,NW,316,2.0,4.0,84,0.00,,---,0.02,VWS V14.01,2013-03-02 22:42:00,
2013-03-02 17:47:00,25.8,21.6,29.89,WNW,302,1.0,4.0,84,0.00,,---,0.02,VWS V14.01,2013-03-02 22:47:00,
2013-03-02 17:52:00,25.7,21.5,29.89,NW,319,0.0,4.0,84,0.00,,---,0.02,VWS V14.01,2013-03-02 22:52:00,
2013-03-02 17:57:00,25.7,21.5,29.89,NNW,335,1.0,3.0,84,0.00,,---,0.02,VWS V14.01,2013-03-02 22:57:00,
2013-03-02 18:02:00,25.6,21.5,29.89,West,273,1.0,5.0,84,0.00,,---,0.02,VWS V14.01,2013-03-02 23:02:00,
2013-03-02 18:07:00,25.6,21.5,29.89,West,273,0.0,5.0,84,0.00,,---,0.02,VWS V14.01,2013-03-02 23:07:00,
2013-03-02 18:12:00,25.6,21.5,29.89,West,273,0.0,5.0,84,0.00,,---,0.02,VWS V14.01,2013-03-02 23:12:00,
2013-03-02 18:17:00,25.6,21.5,29.89,WNW,289,0.0,5.0,84,0.00,,---,0.02,VWS V14.01,2013-03-02 23:17:00,
2013-03-02 18:22:00,25.5,21.6,29.89,NW,308,3.0,5.0,85,0.00,,---,0.02,VWS V14.01,2013-03-02 23:22:00,
2013-03-02 18:27:00,25.4,21.5,29.89,WSW,257,0.0,5.0,85,0.00,,---,0.02,VWS V14.01,2013-03-02 23:27:00,
2013-03-02 18:32:00,25.4,21.5,29.90,West,279,0.0,5.0,85,0.00,,---,0.02,VWS V14.01,2013-03-02 23:32:00,
2013-03-02 18:37:00,25.4,21.5,29.90,NNW,333,0.0,5.0,85,0.00,,---,0.02,VWS V14.01,2013-03-02 23:37:00,
2013-03-02 18:42:00,25.4,21.5,29.90,NNW,333,1.0,5.0,85,0.00,,---,0.02,VWS V14.01,2013-03-02 23:42:00,
2013-03-02 18:47:00,25.3,21.4,29.89,NNW,333,0.0,5.0,85,0.00,,---,0.02,VWS V14.01,2013-03-02 23:47:00,
2013-03-02 18:52:00,25.3,21.7,29.89,NNW,333,2.0,5.0,86,0.00,,---,0.02,VWS V14.01,2013-03-02 23:52:00,
2013-03-02 18:57:00,25.3,21.4,29.89,WNW,294,0.0,4.0,85,0.00,,---,0.02,VWS V14.01,2013-03-02 23:57:00,
2013-03-02 19:02:00,25.2,21.3,29.90,NNW,328,0.0,4.0,85,0.00,,---,0.02,VWS V14.01,2013-03-03 00:02:00,
2013-03-02 19:07:00,25.2,21.3,29.89,NNW,333,2.0,5.0,85,0.00,,---,0.02,VWS V14.01,2013-03-03 00:07:00,
2013-03-02 19:12:00,25.2,21.3,29.89,NNW,335,2.0,5.0,85,0.00,,---,0.02,VWS V14.01,2013-03-03 00:12:00,
2013-03-02 19:17:00,25.2,21.3,29.89,NW,321,2.0,5.0,85,0.00,,---,0.02,VWS V14.01,2013-03-03 00:17:00,
2013-03-02 19:23:00,25.2,21.3,29.89,NW,312,2.0,5.0,85,0.00,,---,0.02,VWS V14.01,2013-03-03 00:23:00,
2013-03-02 19:28:00,25.2,21.3,29.89,NW,325,2.0,4.0,85,0.00,,---,0.02,VWS V14.01,2013-03-03 00:28:00,
2013-03-02 19:33:00,25.2,21.3,29.89,NW,324,0.0,4.0,85,0.00,,---,0.02,VWS V14.01,2013-03-03 00:33:00,
2013-03-02 19:38:00,25.2,21.3,29.89,West,271,4.0,4.0,85,0.00,,---,0.02,VWS V14.01,2013-03-03 00:38:00,
2013-03-02 19:43:00,25.2,21.3,29.89,NNW,332,1.0,6.0,85,0.00,,---,0.02,VWS V14.01,2013-03-03 00:43:00,
2013-03-02 19:48:00,25.2,21.3,29.88,WNW,287,0.0,6.0,85,0.00,,---,0.02,VWS V14.01,2013-03-03 00:48:00,
2013-03-02 19:53:00,25.2,21.3,29.89,NNE,15,2.0,6.0,85,0.00,,---,0.02,VWS V14.01,2013-03-03 00:53:00,
2013-03-02 19:58:00,25.2,21.6,29.88,West,269,0.0,2.0,86,0.00,,---,0.02,VWS V14.01,2013-03-03 00:58:00,
2013-03-02 20:03:00,25.2,21.6,29.88,WNW,302,0.0,2.0,86,0.00,,---,0.02,VWS V14.01,2013-03-03 01:03:00,
2013-03-02 20:08:00,25.2,21.6,29.88,WNW,302,0.0,3.0,86,0.00,,---,0.02,VWS V14.01,2013-03-03 01:08:00,
2013-03-02 20:13:00,25.1,21.5,29.89,WNW,302,0.0,3.0,86,0.00,,---,0.02,VWS V14.01,2013-03-03 01:13:00,
2013-03-02 20:18:00,25.1,21.8,29.88,WNW,302,0.0,3.0,87,0.00,,---,0.02,VWS V14.01,2013-03-03 01:18:00,
2013-03-02 20:23:00,25.1,21.8,29.88,WNW,302,1.0,3.0,87,0.00,,---,0.02,VWS V14.01,2013-03-03 01:23:00,
2013-03-02 20:28:00,25.1,21.5,29.88,WNW,302,0.0,2.0,86,0.00,,---,0.02,VWS V14.01,2013-03-03 01:28:00,
2013-03-02 20:33:00,25.1,21.5,29.88,WNW,302,0.0,2.0,86,0.00,,---,0.02,VWS V14.01,2013-03-03 01:33:00,
2013-03-02 20:38:00,25.1,21.5,29.88,WNW,302,0.0,2.0,86,0.00,,---,0.02,VWS V14.01,2013-03-03 01:38:00,
2013-03-02 20:43:00,25.1,21.5,29.88,WNW,302,0.0,3.0,86,0.00,,---,0.02,VWS V14.01,2013-03-03 01:43:00,
2013-03-02 20:48:00,25.2,21.6,29.89,WNW,302,1.0,3.0,86,0.00,,---,0.02,VWS V14.01,2013-03-03 01:48:00,
2013-03-02 20:53:00,25.2,21.6,29.88,WNW,302,1.0,3.0,86,0.00,,---,0.02,VWS V14.01,2013-03-03 01:53:00,
2013-03-02 20:58:00,25.2,21.6,29.89,WNW,302,1.0,2.0,86,0.00,,---,0.02,VWS V14.01,2013-03-03 01:58:00,
2013-03-02 21:03:00,25.3,21.7,29.89,WNW,302,0.0,3.0,86,0.00,,---,0.02,VWS V14.01,2013-03-03 02:03:00,
2013-03-02 21:08:00,25.3,21.7,29.89,WNW,302,0.0,3.0,86,0.00,,---,0.02,VWS V14.01,2013-03-03 02:08:00,
2013-03-02 21:13:00,25.3,21.7,29.89,WNW,302,0.0,3.0,86,0.00,,---,0.02,VWS V14.01,2013-03-03 02:13:00,
2013-03-02 21:18:00,25.3,21.7,29.89,North,355,0.0,4.0,86,0.00,,---,0.02,VWS V14.01,2013-03-03 02:18:00,
2013-03-02 21:23:00,25.3,22.0,29.89,North,355,0.0,4.0,87,0.00,,---,0.02,VWS V14.01,2013-03-03 02:23:00,
2013-03-02 21:28:00,25.3,22.0,29.89,North,355,2.0,2.0,87,0.00,,---,0.02,VWS V14.01,2013-03-03 02:28:00,
2013-03-02 21:33:00,25.3,22.0,29.88,North,360,1.0,4.0,87,0.00,,---,0.02,VWS V14.01,2013-03-03 02:33:00,
2013-03-02 21:38:00,25.3,22.0,29.88,North,360,0.0,4.0,87,0.00,,---,0.02,VWS V14.01,2013-03-03 02:38:00,
2013-03-02 21:43:00,25.3,22.0,29.88,NNW,332,0.0,4.0,87,0.00,,---,0.02,VWS V14.01,2013-03-03 02:43:00,
2013-03-02 21:48:00,25.2,22.1,29.88,NNW,332,0.0,4.0,88,0.00,,---,0.02,VWS V14.01,2013-03-03 02:48:00,
2013-03-02 21:53:00,25.2,22.1,29.88,NNW,332,0.0,4.0,88,0.00,,---,0.02,VWS V14.01,2013-03-03 02:53:00,
2013-03-02 21:57:00,25.2,22.1,29.88,NNW,332,0.0,1.0,88,0.00,,---,0.02,VWS V14.01,2013-03-03 02:57:00,
2013-03-02 22:02:00,25.2,22.1,29.88,NNW,332,0.0,1.0,88,0.00,,---,0.02,VWS V14.01,2013-03-03 03:02:00,
2013-03-02 22:08:00,25.3,22.2,29.88,NNW,332,0.0,1.0,88,0.00,,---,0.02,VWS V14.01,2013-03-03 03:08:00,
2013-03-02 22:13:00,25.3,22.0,29.87,NNW,332,0.0,3.0,87,0.00,,---,0.02,VWS V14.01,2013-03-03 03:13:00,
2013-03-02 22:18:00,25.3,22.0,29.87,NNW,332,0.0,3.0,87,0.00,,---,0.02,VWS V14.01,2013-03-03 03:18:00,
2013-03-02 22:23:00,25.4,22.1,29.87,NNW,332,1.0,3.0,87,0.00,,---,0.02,VWS V14.01,2013-03-03 03:23:00,
2013-03-02 22:28:00,25.5,22.2,29.87,West,271,3.0,3.0,87,0.00,,---,0.02,VWS V14.01,2013-03-03 03:28:00,
2013-03-02 22:33:00,25.6,22.3,29.87,West,271,0.0,4.0,87,0.00,,---,0.02,VWS V14.01,2013-03-03 03:33:00,
2013-03-02 22:38:00,25.6,22.3,29.87,West,271,1.0,4.0,87,0.00,,---,0.02,VWS V14.01,2013-03-03 03:38:00,
2013-03-02 22:43:00,25.7,22.1,29.86,NW,324,2.0,4.0,86,0.00,,---,0.02,VWS V14.01,2013-03-03 03:43:00,
2013-03-02 22:48:00,25.7,22.1,29.86,NW,324,0.0,4.0,86,0.00,,---,0.02,VWS V14.01,2013-03-03 03:48:00,
2013-03-02 22:53:00,25.8,22.2,29.86,NNW,338,2.0,5.0,86,0.00,,---,0.02,VWS V14.01,2013-03-03 03:53:00,
2013-03-02 22:58:00,25.8,22.2,29.86,NW,309,1.0,4.0,86,0.00,,---,0.02,VWS V14.01,2013-03-03 03:58:00,
2013-03-02 23:03:00,25.8,22.2,29.86,West,277,3.0,4.0,86,0.00,,---,0.02,VWS V14.01,2013-03-03 04:03:00,
2013-03-02 23:08:00,25.8,22.2,29.86,NW,311,1.0,4.0,86,0.00,,---,0.02,VWS V14.01,2013-03-03 04:08:00,
2013-03-02 23:13:00,25.8,22.5,29.86,NW,311,2.0,4.0,87,0.00,,---,0.02,VWS V14.01,2013-03-03 04:13:00,
2013-03-02 23:18:00,25.8,22.5,29.86,West,261,1.0,4.0,87,0.00,,---,0.02,VWS V14.01,2013-03-03 04:18:00,
2013-03-02 23:23:00,25.8,22.2,29.86,NW,305,1.0,4.0,86,0.00,,---,0.02,VWS V14.01,2013-03-03 04:23:00,
2013-03-02 23:28:00,25.8,22.2,29.86,NW,305,0.0,3.0,86,0.00,,---,0.02,VWS V14.01,2013-03-03 04:28:00,
2013-03-02 23:33:00,25.8,22.2,29.85,NW,305,0.0,3.0,86,0.00,,---,0.02,VWS V14.01,2013-03-03 04:33:00,
2013-03-02 23:38:00,25.8,22.2,29.85,WNW,290,3.0,6.0,86,0.00,,---,0.02,VWS V14.01,2013-03-03 04:38:00,
2013-03-02 23:43:00,25.9,22.3,29.85,WNW,290,2.0,6.0,86,0.00,,---,0.02,VWS V14.01,2013-03-03 04:43:00,
2013-03-02 23:48:00,25.9,22.3,29.85,NW,304,2.0,6.0,86,0.00,,---,0.02,VWS V14.01,2013-03-03 04:48:00,
2013-03-02 23:53:00,25.9,22.3,29.85,WNW,291,0.0,6.0,86,0.00,,---,0.02,VWS V14.01,2013-03-03 04:53:00,
2013-03-02 23:58:00,25.9,22.3,29.85,NW,305,3.0,4.0,86,0.00,,---,0.00,VWS V14.01,2013-03-03 04:58:00,